Location: Chequamegon National Forest
(46.1070°N, 90.8420°W)
Time: 10:32:22
(UTC-05:00)

Amateur Radio Satellites - All Passes

Search period start: 17 September 2014 10:02
Search period end: 18 September 2014 10:02
Location: Chequamegon National Forest, 46.1070°N, 90.8420°W

Satellite Date Start Highest point End Downlink Frequencies (MHz)
Time Altitude Azimuth
FUNcube-1 17 Sep 10:08:35 10:10:22 12° 87° (E) 10:12:08 145.950 - 145.970 MHz USB
MaSat-1 17 Sep 10:09:00 10:13:57 55° 303° (WNW) 10:18:49 437.345 MHz
HO-68 17 Sep 10:11:35 10:18:46 69° 104° (ESE) 10:25:55 435.675 MHz FM
Oscar 11 17 Sep 10:24:08 10:28:12 37° 97° (E) 10:32:12 145.825 FM, Beacon 2401.500 USB
UKube-1 17 Sep 10:38:01 10:42:22 68° 103° (ESE) 10:46:42 145.840 MHz, 145.915 MHz
RS-15 17 Sep 10:44:32 10:53:55 31° 13° (NNE) 11:03:28 29.354 - 29.394 USB, Beacon 29.352 USB
UOSAT-12 17 Sep 11:04:37 11:08:02 20° 248° (WSW) 11:11:25 437.025 FM, 437.400 FM
ISS 17 Sep 11:07:43 11:10:07 19° 224° (SW) 11:12:31 145.800 FM
FUNcube-1 17 Sep 11:42:41 11:47:20 81° 285° (WNW) 11:51:57 145.950 - 145.970 MHz USB
MaSat-1 17 Sep 11:49:42 11:51:46 12° 322° (NW) 11:53:49 437.345 MHz
HO-68 17 Sep 12:00:04 12:05:56 29° 304° (NW) 12:11:49 435.675 MHz FM
Oscar 11 17 Sep 12:00:41 12:04:12 24° 295° (WNW) 12:07:42 145.825 FM, Beacon 2401.500 USB
PCSat 17 Sep 12:08:26 12:12:10 19° 106° (ESE) 12:15:55 145.825 MHz
UKube-1 17 Sep 12:15:37 12:18:03 15° 300° (WNW) 12:20:30 145.840 MHz, 145.915 MHz
Oscar 16 17 Sep 12:22:01 12:25:44 20° 60° (ENE) 12:29:28 437.025 USB, Beacon 2401.1428
JAS-1B 17 Sep 12:33:21 12:39:28 24° 58° (ENE) 12:44:54 435.800 - 435.900 CW/SSB
AO-Echo 17 Sep 12:55:54 12:58:58 17° 60° (ENE) 13:02:02 ?
RS-15 17 Sep 12:58:12 13:09:07 60° 44° (NE) 13:20:24 29.354 - 29.394 USB, Beacon 29.352 USB
ITAMSAT 1 17 Sep 13:00:21 13:03:57 20° 59° (ENE) 13:07:34 435.822 SSB
Uribyol 2 17 Sep 13:04:49 13:08:44 22° 61° (ENE) 13:12:40 436.500 FM
TMSAT-1 17 Sep 13:16:06 13:16:31 10° 52° (NE) 13:16:56 436.925 FM
Oscar 19 17 Sep 13:21:06 13:26:12 59° 71° (ENE) 13:31:20 437.125 CW, 437.150 USB
FUNcube-1 17 Sep 13:21:28 13:22:57 11° 303° (WNW) 13:24:25 145.950 - 145.970 MHz USB
Sapphire 17 Sep 13:22:18 13:27:40 70° 119° (ESE) 13:33:04 437.095 MHz 1200 baud AX-25 AFSK
AO-27 17 Sep 13:33:19 13:38:00 36° 66° (ENE) 13:42:42 436.795 MHz FM
PCSat 17 Sep 13:49:37 13:55:00 71° 305° (NW) 14:00:27 145.825 MHz
AO-7 17 Sep 13:50:49 13:55:26 16° 41° (NE) 14:00:02 29.400 - 29.500 MHz
Oscar 16 17 Sep 13:59:28 14:04:37 64° 258° (WSW) 14:09:49 437.025 USB, Beacon 2401.1428
Gurwin Techsat 1B 17 Sep 14:11:57 14:16:48 38° 67° (ENE) 14:21:41 435.225 FM
JAS-1B 17 Sep 14:20:43 14:29:29 86° 254° (WSW) 14:36:47 435.800 - 435.900 CW/SSB
AO-Echo 17 Sep 14:32:35 14:37:18 63° 258° (WSW) 14:41:59 ?
Oscar 10/S400 17 Sep 14:34:42 14:43:46 14° 143° (SE) 14:52:29 145.825 - 145.975 CW/USB, Beacon 145.810 USB
ITAMSAT 1 17 Sep 14:37:49 14:42:57 67° 258° (WSW) 14:48:07 435.822 SSB
Uribyol 2 17 Sep 14:42:45 14:47:49 57° 259° (W) 14:52:56 436.500 FM
TMSAT-1 17 Sep 14:50:11 14:55:22 60° 71° (ENE) 15:00:35 436.925 FM
Oscar 19 17 Sep 15:02:11 15:05:56 20° 269° (W) 15:09:43 437.125 CW, 437.150 USB
Sapphire 17 Sep 15:07:10 15:11:36 25° 320° (NW) 15:16:04 437.095 MHz 1200 baud AX-25 AFSK
RS-15 17 Sep 15:10:55 15:21:20 49° 248° (WSW) 15:32:10 29.354 - 29.394 USB, Beacon 29.352 USB
AO-27 17 Sep 15:12:54 15:17:32 33° 264° (W) 15:22:12 436.795 MHz FM
PCSat 17 Sep 15:35:51 15:39:26 18° 327° (NNW) 15:43:02 145.825 MHz
AO-7 17 Sep 15:38:28 15:46:31 57° 63° (ENE) 15:54:35 29.400 - 29.500 MHz
Uosat F 17 Sep 15:40:40 15:45:08 34° 66° (ENE) 15:49:37 435.120 FM
Gurwin Techsat 1B 17 Sep 15:52:07 15:56:49 32° 265° (W) 16:01:34 435.225 FM
JAS-1B 17 Sep 16:15:07 16:20:43 19° 271° (W) 16:25:50 435.800 - 435.900 CW/SSB
TMSAT-1 17 Sep 16:31:52 16:35:42 20° 269° (W) 16:39:33 436.925 FM
OPAL 17 Sep 16:32:52 16:34:56 12° 89° (E) 16:36:59 ?
Hamsat 17 Sep 16:46:12 16:48:45 15° 61° (ENE) 16:51:17 145.90 MHz
MaSat-1 17 Sep 16:48:43 16:49:47 11° 35° (NE) 16:50:48 437.345 MHz
Uosat F 17 Sep 17:19:25 17:23:54 33° 264° (W) 17:28:25 435.120 FM
AO-7 17 Sep 17:32:07 17:39:37 37° 263° (W) 17:47:10 29.400 - 29.500 MHz
JAS-2 17 Sep 17:43:21 17:48:33 62° 72° (ENE) 17:53:41 435.800 - 435.900 CW/SSB, 435.910 FM
OPAL 17 Sep 18:09:19 18:14:34 88° 107° (ESE) 18:19:41 ?
SO-67 17 Sep 18:16:32 18:18:34 15° 65° (ENE) 18:20:37 435.3500 MHz FM
Hamsat 17 Sep 18:19:53 18:24:13 64° 259° (W) 18:28:34 145.90 MHz
Saudisat 1A 17 Sep 18:22:46 18:27:08 68° 123° (ESE) 18:31:33 436.775 MHz
MaSat-1 17 Sep 18:23:30 18:27:35 67° 59° (ENE) 18:31:02 437.345 MHz
STRAND 1 17 Sep 18:47:33 18:50:54 17° 90° (E) 18:54:15 ?
HO-68 17 Sep 18:59:01 19:03:01 16° 47° (NE) 19:07:02 435.675 MHz FM
KITSAT 1 17 Sep 19:04:53 19:11:05 25° 104° (ESE) 19:17:17 435.175 FM
PCSat 17 Sep 19:10:43 19:11:39 10° 20° (NNE) 19:12:34 145.825 MHz
JAS-2 17 Sep 19:30:46 19:34:12 17° 270° (W) 19:37:35 435.800 - 435.900 CW/SSB, 435.910 FM
SO-67 17 Sep 19:48:03 19:51:18 38° 262° (W) 19:54:35 435.3500 MHz FM
OPAL 17 Sep 19:49:42 19:52:43 16° 306° (NW) 19:55:44 ?
MaSat-1 17 Sep 20:03:23 20:03:30 10° 262° (W) 20:03:36 437.345 MHz
Saudisat 1A 17 Sep 20:03:44 20:07:09 22° 323° (NW) 20:10:36 436.775 MHz
UKube-1 17 Sep 20:03:55 20:04:39 10° 56° (ENE) 20:05:23 145.840 MHz, 145.915 MHz
Sapphire 17 Sep 20:25:02 20:29:11 21° 38° (NE) 20:33:18 437.095 MHz 1200 baud AX-25 AFSK
STRAND 1 17 Sep 20:25:28 20:30:34 66° 288° (WNW) 20:35:39 ?
HO-68 17 Sep 20:42:25 20:49:27 66° 68° (ENE) 20:56:32 435.675 MHz FM
PCSat 17 Sep 20:52:03 20:56:54 32° 44° (NE) 21:01:42 145.825 MHz
KITSAT 1 17 Sep 20:57:30 21:05:37 82° 305° (NW) 21:13:46 435.175 FM
FUNcube-1 17 Sep 21:07:39 21:09:57 14° 59° (ENE) 21:12:17 145.950 - 145.970 MHz USB
Oscar 11 17 Sep 21:21:29 21:25:34 40° 70° (ENE) 21:29:40 145.825 FM, Beacon 2401.500 USB
UKube-1 17 Sep 21:35:47 21:40:07 82° 74° (ENE) 21:44:28 145.840 MHz, 145.915 MHz
AO-40 17 Sep 22:03:39 02:14:59 30° 143° (SE) 03:46:29 Beacon 2401.320
STRAND 1 17 Sep 22:07:33 22:08:49 11° 307° (NW) 22:10:04 ?
Sapphire 17 Sep 22:07:51 22:13:20 87° 239° (WSW) 22:18:45 437.095 MHz 1200 baud AX-25 AFSK
HO-68 17 Sep 22:31:52 22:37:41 27° 267° (W) 22:43:33 435.675 MHz FM
PCSat 17 Sep 22:35:18 22:40:33 51° 245° (WSW) 22:45:46 145.825 MHz
FUNcube-1 17 Sep 22:41:20 22:45:43 75° 258° (WSW) 22:50:15 145.950 - 145.970 MHz USB
KITSAT 1 17 Sep 22:55:28 23:02:16 29° 329° (NNW) 23:09:07 435.175 FM
Oscar 11 17 Sep 22:58:32 23:01:54 22° 267° (W) 23:05:19 145.825 FM, Beacon 2401.500 USB
UKube-1 17 Sep 23:15:57 23:16:54 11° 272° (W) 23:17:50 145.840 MHz, 145.915 MHz
SO-50 17 Sep 23:28:07 23:32:34 67° 123° (ESE) 23:37:09 436.795 FM
Sapphire 17 Sep 23:53:19 23:55:55 14° 257° (WSW) 23:58:31 437.095 MHz 1200 baud AX-25 AFSK
KITSAT 1 18 Sep 00:55:37 01:00:50 18° 359° (N) 01:06:03 435.175 FM
Saudisat 1A 18 Sep 01:08:14 01:11:38 21° 36° (NE) 01:15:01 436.775 MHz
SO-50 18 Sep 01:09:56 01:13:35 23° 324° (NW) 01:17:18 436.795 FM
UOSAT-12 18 Sep 01:16:41 01:21:17 69° 123° (ESE) 01:26:00 437.025 FM, 437.400 FM
Oscar 19 18 Sep 01:31:20 01:34:40 17° 90° (E) 01:37:59 437.125 CW, 437.150 USB
JAS-1B 18 Sep 02:05:08 02:08:59 18° 89° (E) 02:12:45 435.800 - 435.900 CW/SSB
Oscar 16 18 Sep 02:08:47 02:13:36 37° 97° (E) 02:18:22 437.025 USB, Beacon 2401.1428
Gurwin Techsat 1B 18 Sep 02:27:33 02:29:27 12° 86° (E) 02:31:22 435.225 FM
AO-Echo 18 Sep 02:37:01 02:41:21 33° 96° (E) 02:45:47 ?
Saudisat 1A 18 Sep 02:47:16 02:51:41 72° 236° (SW) 02:56:04 436.775 MHz
ITAMSAT 1 18 Sep 02:48:15 02:53:03 36° 97° (E) 02:57:50 435.822 SSB
KITSAT 1 18 Sep 02:52:46 02:59:28 27° 29° (NNE) 03:06:08 435.175 FM
Uribyol 2 18 Sep 02:52:51 02:57:49 42° 98° (E) 03:02:45 436.500 FM
UOSAT-12 18 Sep 02:58:09 03:01:54 23° 324° (NW) 03:05:43 437.025 FM, 437.400 FM
TMSAT-1 18 Sep 03:04:19 03:08:06 20° 91° (E) 03:11:52 436.925 FM
Oscar 19 18 Sep 03:09:22 03:14:31 68° 288° (WNW) 03:19:38 437.125 CW, 437.150 USB
Oscar 10/S400 18 Sep 03:14:21 04:17:13 24° 240° (WSW) 07:09:57 145.825 - 145.975 CW/USB, Beacon 145.810 USB
AO-27 18 Sep 03:22:32 03:27:46 74° 103° (ESE) 03:32:58 436.795 MHz FM
RS-15 18 Sep 03:28:28 03:36:23 24° 101° (E) 03:44:13 29.354 - 29.394 USB, Beacon 29.352 USB
AO-7 18 Sep 03:39:41 03:43:22 13° 85° (E) 03:47:02 29.400 - 29.500 MHz
Oscar 16 18 Sep 03:48:18 03:52:52 32° 295° (WNW) 03:57:23 437.025 USB, Beacon 2401.1428
OPAL 18 Sep 03:48:47 03:53:19 32° 62° (ENE) 03:57:53 ?
ISS 18 Sep 03:50:49 03:53:54 36° 143° (SE) 03:57:00 145.800 FM
JAS-1B 18 Sep 03:54:33 04:00:24 65° 290° (WNW) 04:05:59 435.800 - 435.900 CW/SSB
Gurwin Techsat 1B 18 Sep 04:04:52 04:10:13 85° 104° (ESE) 04:15:32 435.225 FM
AO-Echo 18 Sep 04:15:52 04:20:06 32° 293° (WNW) 04:24:26 ?
ITAMSAT 1 18 Sep 04:27:52 04:32:29 33° 295° (WNW) 04:37:07 435.822 SSB
Uribyol 2 18 Sep 04:32:40 04:37:08 29° 296° (WNW) 04:41:34 436.500 FM
TMSAT-1 18 Sep 04:43:13 04:48:27 62° 289° (WNW) 04:53:40 436.925 FM
KITSAT 1 18 Sep 04:48:08 04:56:16 77° 54° (NE) 05:04:20 435.175 FM
Oscar 19 18 Sep 04:51:26 04:52:54 11° 307° (NW) 04:54:23 437.125 CW, 437.150 USB
AO-27 18 Sep 05:03:16 05:06:43 18° 302° (WNW) 05:10:09 436.795 MHz FM
Uosat F 18 Sep 05:23:48 05:28:47 62° 102° (ESE) 05:33:46 435.120 FM
OPAL 18 Sep 05:27:14 05:32:04 40° 260° (W) 05:36:59 ?
ISS 18 Sep 05:27:20 05:30:35 48° 341° (NNW) 05:33:50 145.800 FM
AO-7 18 Sep 05:29:28 05:37:44 67° 105° (ESE) 05:45:58 29.400 - 29.500 MHz
RS-15 18 Sep 05:36:03 05:47:06 86° 124° (ESE) 05:58:05 29.354 - 29.394 USB, Beacon 29.352 USB
Gurwin Techsat 1B 18 Sep 05:46:20 05:49:30 16° 303° (WNW) 05:52:40 435.225 FM
JAS-1B 18 Sep 05:48:14 05:49:48 11° 313° (NW) 05:51:20 435.800 - 435.900 CW/SSB
Hamsat 18 Sep 06:04:00 06:07:04 19° 91° (E) 06:10:06 145.90 MHz
STRAND 1 18 Sep 06:05:38 06:10:07 33° 65° (ENE) 06:14:39 ?
SO-50 18 Sep 06:17:16 06:21:09 24° 37° (NE) 06:25:05 436.795 FM
TMSAT-1 18 Sep 06:26:22 06:27:20 11° 308° (NW) 06:28:18 436.925 FM
JAS-2 18 Sep 06:32:45 06:38:24 46° 99° (E) 06:44:44 435.800 - 435.900 CW/SSB, 435.910 FM
KITSAT 1 18 Sep 06:44:27 06:50:54 27° 254° (WSW) 06:57:21 435.175 FM
Uosat F 18 Sep 07:03:33 07:07:08 20° 300° (WNW) 07:10:42 435.120 FM
ISS 18 Sep 07:04:46 07:07:46 30° 1° (N) 07:10:46 145.800 FM
SO-67 18 Sep 07:10:37 07:11:59 12° 90° (E) 07:13:22 435.3500 MHz FM
AO-7 18 Sep 07:22:53 07:30:01 34° 306° (NW) 07:37:08 29.400 - 29.500 MHz
Hamsat 18 Sep 07:39:11 07:43:15 43° 289° (WNW) 07:47:15 145.90 MHz
STRAND 1 18 Sep 07:44:38 07:49:16 35° 263° (W) 07:53:56 ?
RS-15 18 Sep 07:50:44 08:00:47 39° 331° (NNW) 08:10:56 29.354 - 29.394 USB, Beacon 29.352 USB
SO-50 18 Sep 07:57:23 08:02:10 69° 237° (WSW) 08:07:00 436.795 FM
UOSAT-12 18 Sep 08:04:25 08:08:15 24° 36° (NE) 08:12:02 437.025 FM, 437.400 FM
MaSat-1 18 Sep 08:12:17 08:15:53 20° 104° (ESE) 08:19:28 437.345 MHz
JAS-2 18 Sep 08:18:17 08:23:23 33° 295° (WNW) 08:29:01 435.800 - 435.900 CW/SSB, 435.910 FM
ISS 18 Sep 08:41:39 08:44:56 54° 21° (NNE) 08:48:13 145.800 FM
SO-67 18 Sep 08:41:57 08:45:17 46° 287° (WNW) 08:48:36 435.3500 MHz FM
UKube-1 18 Sep 09:23:46 09:25:12 11° 89° (E) 09:26:38 145.840 MHz, 145.915 MHz
UOSAT-12 18 Sep 09:44:08 09:48:52 69° 237° (WSW) 09:53:30 437.025 FM, 437.400 FM
MaSat-1 18 Sep 09:47:16 09:52:16 63° 301° (WNW) 09:57:10 437.345 MHz
